Wind_Speed
33 33 33 32 30 28 25 25 19 20 24 23 23 21 19 18 18 18 16 12 10 9 13 15 13 12 14 18 24 25 26 25 26 30 32 31 27 24 25 26 26 27 26 25 25 22 22 21 22
36 35 35 35 31 29 25 25 26 26 21 28 23 22 22 20 24 20 15 12 9 8 12 13 15 14 16 22 27 27 31 29 29 28 31 31 30 27 26 28 28 26 26 27 27 25 24 23 21
38 38 38 37 34 28 18 20 23 25 36 22 25 24 26 26 24 18 13 13 10 8 9 12 16 17 20 24 28 28 29 29 30 31 33 34 32 31 30 29 30 30 28 28 28 27 25 24 22
37 39 40 39 34 31 26 18 23 29 34 27 29 26 22 21 19 23 16 20 14 11 15 14 18 23 25 26 26 25 26 29 31 31 33 35 35 34 33 33 33 31 29 29 30 30 27 25 23
35 37 41 39 34 34 30 23 39 34 27 32 32 27 24 23 26 27 24 22 15 16 18 20 22 25 24 22 21 23 26 29 33 34 35 34 34 37 34 34 34 32 30 30 31 31 30 27 27
36 36 40 37 33 32 36 33 38 36 34 34 33 30 26 31 30 31 24 19 18 18 19 22 26 25 20 18 21 24 26 31 32 33 33 34 35 34 34 34 34 33 32 32 31 29 29 29 27
35 38 39 38 37 28 26 37 42 36 38 35 34 32 30 37 31 33 26 22 22 22 21 22 27 21 20 23 22 25 29 33 33 32 31 30 35 36 35 34 33 33 33 33 33 31 29 30 30
36 44 44 41 39 38 39 42 41 40 40 43 41 32 31 38 40 33 28 25 26 26 24 25 26 20 23 23 25 28 32 37 36 34 31 30 32 33 32 33 33 33 34 33 33 32 31 33 32
41 45 47 43 40 41 38 41 37 38 41 41 45 36 37 43 41 30 29 30 29 30 28 29 25 23 28 29 30 34 36 36 36 35 34 34 33 34 35 32 34 34 34 35 33 34 33 33 35
52 50 46 39 41 45 44 38 39 42 48 47 46 47 44 44 41 38 35 35 33 34 32 29 29 28 30 31 33 35 37 37 37 37 37 37 36 37 38 35 36 36 37 37 37 36 36 35 33
56 60 47 42 41 43 49 43 40 45 46 46 49 48 43 47 45 41 41 37 36 37 36 33 32 31 31 33 35 36 39 40 40 39 39 40 42 40 36 35 36 36 37 39 40 40 35 32 29
57 57 61 53 48 49 52 47 48 46 48 44 45 44 46 57 48 45 42 34 31 37 39 36 36 34 32 35 37 39 42 43 42 42 40 41 42 42 36 33 35 35 37 39 41 39 32 32 31
51 49 53 62 60 57 55 52 49 51 52 47 53 48 56 60 52 49 49 45 44 42 44 40 41 37 36 38 39 41 44 46 44 45 44 40 42 39 33 34 35 37 37 39 39 38 32 30 29
48 52 54 54 64 66 64 63 50 57 53 57 56 57 61 61 56 53 52 49 48 47 45 45 44 40 39 38 41 44 45 47 47 47 47 43 42 37 35 34 35 37 39 39 37 38 34 32 32
51 54 55 55 56 56 69 72 67 57 57 64 59 61 61 54 56 57 56 52 51 50 46 46 46 43 41 41 43 45 48 48 48 48 45 46 43 38 36 37 34 37 39 36 38 38 33 33 35
54 56 58 51 56 53 58 73 68 63 62 61 59 57 62 54 55 56 55 55 55 52 49 48 45 42 43 47 48 49 51 52 52 47 45 46 42 39 40 38 37 38 37 36 39 36 34 34 34
56 59 59 56 55 57 60 63 59 59 61 65 64 58 60 58 54 56 56 56 60 55 50 47 44 42 48 48 50 52 54 54 56 51 45 45 41 40 39 38 40 39 38 39 36 35 32 36 36
57 60 59 60 56 54 50 64 59 55 56 63 64 68 62 61 60 61 59 63 65 57 51 50 47 48 50 55 55 54 55 55 57 50 45 45 39 40 38 39 41 40 37 37 35 32 33 36 39
62 64 65 62 61 43 59 67 62 60 61 60 63 66 71 69 63 65 65 72 67 56 53 51 49 51 55 56 55 56 55 57 54 45 45 41 38 39 38 40 42 39 38 34 32 33 35 37 38
67 68 66 66 65 55 68 72 68 65 64 63 63 65 69 70 70 66 70 74 67 60 59 51 52 54 56 57 56 54 53 50 46 42 41 35 37 36 37 39 39 36 33 32 31 34 36 36 36
63 67 69 72 72 73 75 75 69 69 69 66 64 64 66 68 68 71 72 68 65 65 65 60 58 56 60 58 53 49 48 46 40 37 32 33 34 36 36 35 33 30 31 30 33 35 36 36 34
58 57 62 68 70 76 73 78 74 70 70 68 66 63 66 65 64 59 56 65 70 65 61 64 59 59 60 52 48 45 42 40 33 29 29 31 33 36 33 32 30 28 31 32 35 34 34 36 36
47 45 51 58 67 71 75 77 78 73 74 69 68 66 62 60 59 56 54 53 57 58 61 66 61 62 53 46 43 38 35 31 28 28 28 30 35 32 31 30 30 29 32 32 33 34 34 33 30
32 39 36 39 41 52 74 66 82 77 76 72 70 67 65 57 51 50 49 49 50 47 49 49 53 52 43 39 34 32 28 29 26 26 28 32 32 30 29 29 29 30 31 30 33 35 32 28 27
28 24 27 33 39 48 44 51 61 79 64 67 67 67 60 57 50 43 46 48 48 44 46 46 45 41 35 33 32 29 26 27 26 27 28 32 30 28 29 28 30 28 30 31 33 30 27 26 26
17 17 24 27 28 32 35 49 53 49 38 36 70 66 58 52 45 43 45 44 40 43 44 40 38 36 32 33 29 26 27 26 28 28 30 30 28 28 28 28 27 28 30 31 29 26 25 25 25
14 23 17 28 28 35 37 43 34 48 43 40 53 58 52 53 49 45 43 38 41 42 38 34 34 31 31 30 27 27 27 28 27 28 31 26 27 26 26 26 28 29 28 26 25 25 24 24 24
12 10 24 28 25 32 21 23 20 31 52 30 32 45 53 48 48 49 45 41 39 38 33 33 30 30 29 26 25 26 27 27 27 28 25 26 26 25 24 27 29 27 24 24 25 23 22 23 24
12 13 19 23 20 23 19 18 22 20 32 41 24 40 45 52 48 45 42 38 37 34 33 31 31 28 25 25 25 26 25 24 23 23 24 24 24 24 26 29 24 22 21 23 21 20 21 23 24
20 19 20 27 23 16 25 19 24 25 27 33 44 51 47 36 43 43 41 40 37 32 32 32 29 26 25 25 26 22 20 19 21 22 23 23 23 25 26 21 21 19 21 19 20 21 21 23 22
Wind_Direction
216 217 217 221 222 224 225 224 226 231 225 232 230 222 214 183 221 216 238 249 268 319 348 352 338 322 313 324 332 334 338 336 333 337 336 337 336 335 333 331 333 331 328 323 323 319 310 304 303
215 217 218 220 220 224 227 225 232 228 232 235 227 226 218 212 205 225 232 248 273 336 349 346 349 337 317 322 323 321 330 329 328 325 330 328 331 330 333 333 333 331 326 325 322 319 314 309 303
216 217 221 220 220 220 222 254 233 225 236 242 235 230 222 225 228 240 241 255 260 316 321 328 330 328 326 322 321 317 321 321 325 327 327 328 329 330 334 338 335 332 329 325 321 319 315 311 309
226 222 222 224 222 222 210 224 223 228 240 237 236 240 240 246 241 247 253 273 284 307 307 320 319 320 323 319 320 320 319 321 326 329 330 329 328 328 333 336 335 331 328 322 319 320 318 314 318
231 230 224 223 221 223 217 224 227 228 227 234 239 243 245 245 246 252 259 259 285 299 304 313 319 319 314 312 319 320 318 321 325 326 326 328 331 329 332 334 331 326 321 318 320 321 322 317 321
233 234 231 227 222 226 226 225 235 235 228 230 240 243 247 248 247 259 258 267 281 292 302 304 315 313 304 308 314 316 318 316 319 320 320 322 328 332 332 333 330 325 320 317 318 323 322 318 312
236 235 236 230 220 227 237 231 230 227 230 236 246 245 244 254 250 253 259 268 274 285 294 299 305 307 300 310 316 322 320 318 316 319 318 322 324 329 330 330 327 322 317 315 316 318 320 315 312
234 235 232 232 229 230 226 228 233 234 231 225 222 230 239 250 253 251 261 268 269 279 284 291 297 294 298 303 313 317 317 319 317 316 317 318 322 324 325 325 323 318 315 313 311 312 313 316 315
237 234 231 231 233 233 231 234 230 230 232 234 239 235 223 228 254 258 259 264 266 273 279 288 294 288 293 301 309 313 314 314 314 315 317 321 322 324 325 324 321 317 311 309 311 310 313 312 317
239 237 231 233 238 240 230 230 230 228 232 230 237 231 232 241 254 259 260 263 265 270 277 282 288 290 290 298 306 309 313 313 313 315 320 320 324 322 323 321 319 315 308 311 310 311 315 312 312
241 238 240 234 240 242 231 227 231 231 232 230 237 243 239 240 244 251 256 258 264 266 272 279 285 291 290 298 302 307 312 313 312 315 319 320 322 318 319 316 314 313 309 310 307 309 312 306 309
247 246 240 238 240 244 234 232 231 231 232 233 232 239 252 247 244 247 248 245 247 257 273 278 281 285 290 296 302 307 309 310 311 313 315 318 316 313 314 314 313 309 309 303 303 308 306 301 302
248 249 246 239 241 241 242 232 237 236 238 234 234 222 239 250 250 249 250 255 258 264 271 275 279 280 285 292 300 303 303 307 308 310 311 313 312 309 309 312 310 311 303 300 300 308 302 298 299
250 247 246 244 242 242 242 232 241 233 237 236 235 240 244 246 249 250 251 256 261 267 270 272 276 278 284 292 300 298 298 304 306 304 309 314 312 307 309 311 310 307 301 297 300 301 299 300 299
251 249 249 247 249 250 244 241 230 233 240 241 243 241 245 248 252 251 252 259 263 266 267 268 275 281 288 295 296 294 295 300 302 301 305 311 310 309 310 308 308 300 294 294 299 302 299 300 304
252 252 254 253 253 254 250 245 238 237 240 241 243 245 244 244 249 252 253 257 258 262 262 264 270 281 289 291 289 289 291 294 299 298 302 305 306 305 309 308 303 294 291 293 294 301 298 298 303
251 254 254 253 254 254 251 251 242 236 242 244 242 240 244 241 246 250 253 255 257 259 259 262 268 274 282 285 282 287 289 291 297 300 299 301 300 303 306 303 296 297 291 290 297 298 299 301 300
253 255 253 252 249 253 256 253 246 244 242 242 243 243 241 240 238 239 243 248 252 256 257 261 267 272 278 282 282 284 285 289 293 297 295 295 299 301 301 296 299 297 291 291 295 298 297 298 302
251 251 250 248 246 254 248 253 247 244 241 239 242 243 241 241 242 240 240 248 254 255 258 262 269 272 276 278 280 282 284 289 292 292 290 292 296 299 298 297 299 294 289 291 294 295 297 300 300
255 255 253 250 248 238 248 247 248 246 244 240 239 241 243 244 242 242 245 250 253 257 258 261 262 271 277 279 278 281 283 287 287 286 287 289 295 297 297 297 297 291 289 289 294 294 298 300 300
250 251 251 251 245 244 249 249 247 246 245 244 240 241 243 244 243 242 244 249 255 257 258 260 260 270 274 275 280 281 280 283 283 281 283 290 294 295 294 292 288 286 288 290 292 295 298 298 301
254 251 248 247 245 248 245 248 246 244 245 244 244 241 242 246 249 248 250 248 248 252 257 257 260 265 268 274 278 278 277 278 279 278 286 290 292 291 290 288 286 285 286 291 291 295 296 298 300
261 258 254 250 245 244 240 245 247 244 245 245 241 243 243 242 245 248 248 251 249 246 254 258 258 258 263 270 273 273 274 269 270 279 286 287 287 287 286 283 286 287 289 292 295 296 297 297 294
260 262 262 259 257 250 242 241 242 243 243 241 239 239 242 242 242 245 246 244 240 249 253 252 250 255 261 265 267 267 263 268 274 280 282 285 284 281 280 284 287 289 291 295 295 296 295 293 290
264 265 260 257 251 255 252 242 244 236 240 241 240 236 237 238 237 238 240 241 241 242 242 246 250 256 258 259 258 259 264 269 274 277 280 281 276 278 280 284 288 290 293 295 296 293 292 290 292
260 242 252 257 257 255 243 247 237 236 219 229 239 240 237 235 233 231 233 238 237 238 239 242 247 253 252 252 252 257 262 269 273 274 276 271 274 277 280 287 288 291 294 295 293 292 289 288 291
267 258 270 253 251 252 251 240 235 218 218 220 234 239 236 230 226 227 230 230 229 233 238 243 245 246 245 244 249 257 264 268 273 273 267 270 272 274 283 286 288 294 292 292 292 291 289 290 295
253 268 264 247 259 250 255 258 234 236 217 201 204 226 229 226 222 222 224 222 224 230 236 239 239 242 242 244 251 259 265 269 266 262 268 270 273 280 282 285 293 293 289 294 293 290 290 290 291
264 295 287 250 252 238 231 211 221 221 225 183 199 206 226 224 221 220 221 221 225 227 226 233 236 238 241 244 252 256 261 260 259 263 265 269 277 279 284 289 291 292 292 294 286 287 288 295 293
260 267 272 263 233 228 249 188 166 176 210 188 206 205 220 219 223 220 220 222 219 219 222 230 235 236 237 243 248 250 247 252 258 263 267 274 276 283 285 284 289 289 292 286 286 292 300 298 290
Height
5862 5866 5868 5871 5876 5878 5880 5883 5886 5887 5889 5890 5891 5894 5897 5899 5903 5902 5896 5895 5894 5893 5890 5888 5886 5885 5885 5884 5883 5882 5881 5880 5878 5876 5874 5872 5871 5869 5867 5866 5864 5862 5860 5858 5856 5855 5854 5853 5852
5858 5861 5864 5866 5871 5874 5879 5881 5881 5882 5883 5883 5888 5890 5893 5896 5894 5893 5893 5893 5892 5891 5888 5887 5885 5884 5883 5882 5881 5880 5878 5877 5876 5875 5872 5871 5868 5867 5864 5863 5861 5858 5856 5853 5851 5851 5850 5849 5848
5853 5855 5859 5861 5865 5870 5878 5881 5878 5878 5874 5882 5884 5886 5887 5888 5888 5889 5891 5890 5889 5888 5886 5884 5884 5883 5882 5880 5878 5877 5876 5875 5873 5870 5868 5867 5865 5863 5861 5858 5856 5854 5851 5850 5848 5847 5845 5844 5843
5848 5850 5853 5855 5862 5867 5871 5875 5874 5872 5872 5877 5878 5881 5883 5883 5885 5883 5886 5887 5886 5885 5885 5883 5882 5881 5880 5878 5876 5875 5873 5873 5870 5866 5864 5862 5860 5858 5856 5854 5852 5850 5847 5845 5844 5844 5842 5841 5839
5841 5844 5846 5850 5857 5860 5864 5865 5863 5865 5869 5871 5874 5877 5879 5880 5880 5878 5882 5883 5882 5882 5881 5882 5880 5878 5877 5875 5875 5873 5871 5870 5867 5864 5862 5859 5858 5855 5854 5851 5849 5847 5846 5844 5842 5841 5840 5838 5835
5836 5838 5841 5846 5852 5855 5856 5857 5855 5861 5864 5868 5869 5872 5875 5873 5875 5874 5878 5879 5879 5878 5878 5878 5878 5877 5875 5873 5872 5871 5870 5868 5865 5863 5861 5857 5855 5853 5851 5848 5846 5844 5843 5842 5841 5839 5838 5836 5834
5830 5832 5836 5840 5843 5847 5851 5850 5849 5856 5859 5864 5866 5867 5870 5865 5870 5869 5872 5875 5875 5874 5874 5874 5873 5874 5873 5872 5870 5868 5868 5866 5864 5861 5859 5856 5853 5850 5848 5846 5844 5842 5841 5839 5837 5836 5834 5832 5829
5823 5825 5828 5833 5837 5841 5840 5840 5845 5850 5852 5855 5854 5861 5865 5861 5861 5865 5868 5869 5869 5869 5870 5870 5870 5870 5870 5869 5868 5867 5865 5863 5860 5859 5856 5855 5853 5850 5848 5844 5842 5840 5837 5835 5833 5831 5829 5826 5824
5816 5816 5819 5828 5832 5834 5836 5837 5841 5845 5846 5850 5850 5857 5853 5850 5855 5862 5863 5863 5864 5864 5865 5865 5865 5866 5865 5865 5864 5863 5861 5859 5857 5855 5853 5851 5849 5847 5844 5841 5839 5836 5833 5830 5829 5826 5824 5822 5819
5806 5808 5815 5823 5823 5822 5827 5832 5834 5838 5837 5843 5844 5846 5848 5851 5854 5855 5857 5858 5860 5860 5860 5859 5859 5860 5860 5860 5860 5858 5856 5853 5852 5850 5848 5846 5844 5841 5839 5836 5833 5831 5828 5825 5823 5821 5820 5817 5814
5799 5798 5811 5815 5815 5815 5819 5825 5827 5829 5830 5838 5840 5841 5845 5843 5847 5850 5851 5855 5854 5854 5853 5854 5854 5854 5854 5854 5854 5853 5851 5848 5846 5844 5843 5841 5838 5836 5834 5831 5829 5826 5823 5821 5818 5817 5815 5813 5809
5786 5793 5799 5806 5806 5804 5809 5815 5818 5819 5824 5831 5835 5839 5835 5831 5840 5843 5848 5851 5852 5849 5848 5848 5849 5850 5849 5848 5848 5846 5844 5842 5840 5839 5840 5838 5835 5831 5828 5826 5823 5822 5818 5816 5813 5812 5810 5807 5804
5776 5783 5785 5789 5790 5794 5798 5804 5809 5812 5818 5822 5824 5827 5823 5823 5831 5835 5837 5841 5842 5843 5842 5843 5842 5845 5843 5843 5842 5841 5839 5837 5835 5833 5834 5836 5830 5827 5824 5820 5818 5816 5814 5811 5808 5806 5805 5802 5800
5770 5769 5771 5775 5779 5782 5785 5791 5794 5805 5808 5810 5812 5814 5815 5818 5823 5827 5828 5832 5834 5835 5837 5836 5835 5838 5838 5837 5836 5834 5833 5831 5830 5829 5826 5827 5824 5821 5817 5815 5813 5809 5807 5805 5803 5801 5798 5796 5793
5755 5754 5759 5764 5769 5771 5777 5775 5784 5799 5800 5798 5801 5805 5806 5814 5816 5819 5820 5824 5826 5827 5829 5830 5830 5827 5829 5830 5829 5827 5826 5826 5826 5824 5822 5819 5818 5814 5811 5809 5807 5805 5802 5800 5797 5795 5793 5790 5788
5743 5743 5746 5763 5758 5764 5756 5756 5779 5789 5789 5787 5791 5796 5798 5804 5806 5810 5813 5815 5817 5820 5821 5825 5825 5821 5821 5823 5822 5820 5820 5819 5818 5818 5816 5814 5812 5809 5806 5802 5801 5799 5797 5795 5792 5790 5787 5785 5782
5732 5733 5736 5744 5746 5746 5740 5749 5766 5774 5774 5775 5779 5785 5788 5794 5797 5799 5803 5805 5806 5810 5813 5817 5817 5818 5815 5815 5816 5814 5813 5812 5809 5811 5810 5808 5806 5803 5800 5797 5794 5793 5792 5789 5788 5784 5782 5778 5776
5721 5717 5724 5726 5738 5733 5729 5735 5753 5759 5760 5762 5767 5772 5777 5783 5787 5790 5794 5792 5794 5801 5806 5810 5811 5811 5809 5807 5807 5807 5806 5805 5804 5804 5802 5801 5799 5797 5795 5790 5789 5788 5786 5783 5781 5779 5776 5773 5770
5702 5703 5707 5714 5720 5717 5719 5722 5735 5743 5746 5751 5754 5759 5765 5771 5777 5779 5779 5776 5782 5794 5799 5801 5800 5801 5799 5800 5800 5799 5798 5798 5797 5796 5795 5794 5793 5791 5787 5784 5783 5782 5779 5778 5776 5773 5770 5767 5765
5685 5686 5694 5697 5703 5697 5704 5705 5719 5726 5731 5738 5742 5746 5751 5758 5765 5768 5770 5769 5777 5785 5788 5790 5793 5791 5791 5791 5794 5792 5791 5791 5789 5788 5788 5787 5786 5784 5781 5779 5777 5776 5773 5772 5770 5767 5764 5761 5758
5671 5671 5676 5676 5679 5680 5687 5689 5702 5710 5716 5724 5730 5735 5738 5742 5749 5754 5759 5767 5772 5773 5777 5781 5782 5785 5784 5785 5785 5785 5783 5781 5781 5780 5781 5781 5779 5776 5775 5773 5771 5770 5767 5766 5763 5761 5758 5754 5752
5651 5653 5654 5657 5659 5664 5676 5668 5684 5696 5701 5709 5716 5723 5727 5731 5738 5748 5753 5758 5761 5764 5767 5767 5773 5778 5777 5778 5776 5776 5775 5773 5773 5773 5774 5774 5772 5770 5769 5767 5766 5764 5761 5760 5757 5754 5752 5748 5744
5635 5635 5635 5638 5640 5643 5650 5655 5671 5683 5687 5696 5704 5708 5716 5722 5728 5736 5743 5745 5748 5752 5756 5758 5764 5767 5771 5770 5769 5768 5767 5765 5766 5766 5767 5766 5765 5764 5763 5762 5760 5757 5755 5753 5750 5748 5746 5742 5740
5623 5621 5624 5625 5626 5623 5636 5639 5650 5665 5673 5683 5688 5695 5702 5713 5720 5725 5730 5734 5738 5744 5745 5750 5755 5758 5761 5761 5761 5760 5759 5758 5759 5760 5760 5760 5759 5759 5758 5756 5753 5752 5749 5748 5745 5742 5739 5736 5733
5613 5613 5613 5615 5616 5611 5624 5624 5629 5652 5657 5666 5673 5681 5692 5699 5708 5716 5720 5724 5728 5733 5737 5742 5746 5749 5751 5753 5752 5752 5752 5752 5752 5754 5754 5754 5754 5753 5752 5749 5748 5746 5743 5742 5739 5736 5733 5730 5728
5605 5607 5609 5606 5608 5612 5613 5606 5615 5635 5648 5653 5658 5674 5684 5692 5699 5705 5710 5714 5721 5725 5730 5734 5737 5740 5743 5744 5744 5745 5746 5746 5747 5747 5748 5748 5748 5747 5745 5744 5743 5741 5739 5735 5733 5730 5728 5725 5723
5602 5601 5603 5599 5599 5596 5597 5599 5605 5620 5633 5643 5653 5665 5675 5680 5688 5695 5700 5708 5713 5717 5722 5726 5730 5733 5734 5736 5738 5739 5740 5740 5741 5741 5741 5742 5742 5742 5739 5738 5737 5735 5733 5730 5727 5725 5723 5721 5718
5596 5597 5592 5593 5592 5592 5595 5600 5604 5610 5621 5637 5645 5653 5664 5672 5678 5682 5690 5698 5705 5709 5715 5719 5723 5725 5727 5729 5731 5732 5733 5734 5735 5735 5736 5736 5736 5735 5734 5733 5732 5729 5727 5724 5722 5720 5718 5716 5713
5594 5593 5590 5588 5587 5590 5590 5592 5598 5612 5615 5628 5638 5644 5654 5663 5668 5676 5684 5693 5697 5703 5708 5712 5715 5718 5720 5723 5725 5727 5728 5728 5729 5731 5731 5731 5730 5730 5729 5728 5727 5724 5722 5720 5718 5716 5714 5711 5708
5588 5587 5586 5583 5586 5586 5588 5586 5594 5595 5610 5621 5624 5635 5647 5656 5663 5670 5678 5684 5690 5696 5701 5704 5708 5711 5715 5718 5720 5722 5723 5723 5725 5725 5726 5726 5726 5725 5724 5723 5722 5720 5718 5716 5714 5712 5709 5705 5703